Temperature
16 16 16 16 16 16 16 15 15 14 13 13 13 13 13 13 13 13 13 13 13 13 13 13 13 13 13 12 12 12 12 12 12 12 12 12 12 11
16 16 16 16 16 15 15 15 15 15 14 13 13 13 13 13 13 13 13 13 13 13 13 13 13 12 12 12 12 12 12 12 12 11 11 11 11 11
16 16 16 16 15 15 15 15 15 15 14 14 13 13 13 13 13 13 12 12 12 12 12 12 12 12 12 12 12 12 11 11 11 11 11 11 11 11
16 16 16 15 15 15 15 15 15 14 14 14 13 13 13 12 12 12 12 12 12 12 12 12 12 12 12 11 11 11 11 11 11 11 10 10 10 10
15 15 15 15 15 15 15 15 14 14 14 14 13 13 12 12 12 12 12 12 12 11 11 11 11 11 11 11 11 11 11 11 10 10 10 10 10 10
15 15 15 15 15 15 15 14 14 14 14 13 13 13 12 12 12 12 12 11 11 11 11 11 11 11 11 11 11 10 10 10 10 10 10 9 9 9
15 15 15 15 15 15 14 14 14 14 14 13 13 13 12 12 12 12 12 11 11 11 11 11 11 10 10 10 10 10 10 10 10 10 9 9 9 9
15 14 14 14 14 14 14 14 14 14 14 13 13 13 12 12 12 12 11 11 11 11 11 11 11 10 10 10 10 10 10 10 9 9 9 9 9 9
14 14 14 14 14 14 14 13 13 13 13 13 13 13 12 12 12 12 11 11 11 11 11 10 10 10 10 10 10 10 10 9 9 9 9 9 9 8
14 14 14 14 13 13 13 13 13 13 13 12 12 12 12 12 12 12 11 11 11 11 10 10 10 10 10 10 10 10 9 9 9 9 9 8 8 8
14 14 13 13 13 13 13 13 13 12 12 12 12 12 12 12 11 11 11 11 11 11 10 10 10 10 10 10 10 9 9 9 9 9 8 8 8 8
13 13 13 13 13 13 13 13 12 12 12 12 12 12 12 11 11 11 11 11 11 10 10 10 10 10 10 10 10 9 9 9 9 8 8 8 8 8
13 13 13 13 13 12 12 12 12 12 12 12 12 11 11 11 11 11 11 11 11 10 10 10 10 10 9 9 9 9 9 9 9 8 8 8 8 8
13 13 13 12 12 12 12 12 12 12 11 11 11 11 11 11 11 11 11 10 10 10 10 10 10 10 9 9 9 9 9 9 9 8 8 8 8 7
13 13 12 12 12 12 12 12 11 11 11 11 11 11 11 11 11 11 10 10 10 10 10 10 10 10 9 9 9 9 9 9 9 8 8 8 8 7
13 12 12 12 12 12 11 11 11 11 11 11 11 11 11 11 11 10 10 10 10 10 10 10 9 9 9 9 9 9 9 8 8 8 8 8 8 7
12 12 12 12 11 11 11 11 11 11 11 11 11 10 10 10 10 10 10 10 10 10 10 10 10 9 9 9 9 9 9 8 8 8 8 8 8 7
12 12 12 11 11 11 11 11 11 11 11 11 10 10 10 10 10 10 10 10 10 10 10 10 9 9 9 9 9 9 8 8 8 8 8 8 8 7
12 12 11 11 11 11 11 11 11 11 10 10 10 10 10 10 10 10 10 10 10 10 9 9 9 9 9 8 9 9 8 8 8 8 8 8 8 7
11 11 11 11 11 11 11 11 11 10 10 10 10 10 10 10 10 9 9 9 9 9 9 9 9 9 8 8 8 8 8 8 8 8 8 7 7 7
12 11 11 11 11 11 11 10 10 10 10 10 10 10 9 9 9 9 9 9 9 9 9 9 9 8 8 8 8 8 8 8 8 8 7 7 7 7
12 12 11 11 11 11 10 10 10 10 10 10 9 9 9 9 9 9 9 9 9 8 8 8 8 8 8 8 8 8 8 7 7 7 7 7 7 6
12 11 11 11 11 11 10 10 10 10 10 9 9 9 9 9 9 9 9 9 8 8 8 8 8 8 8 8 7 7 7 7 7 7 7 7 7 7
Wind_Speed
2 2 1 1 2 2 4 5 4 2 1 1 0 0 3 5 5 6 6 7 8 8 8 8 8 8 8 7 7 6 6 6 6 5 5 4 3 2
1 2 2 1 2 2 3 2 3 4 2 2 1 1 3 4 5 5 6 7 7 7 7 8 8 8 8 8 8 8 7 7 7 6 6 5 5 4
2 3 2 2 1 1 1 2 2 3 4 1 1 1 2 3 4 4 5 5 5 6 7 7 7 8 7 7 7 7 7 7 6 6 5 5 5 5
3 3 2 2 2 1 2 2 2 3 5 4 2 1 1 3 3 3 3 3 4 4 5 5 5 6 6 6 6 6 6 6 6 5 5 5 4 4
2 3 2 3 2 2 2 3 3 4 4 5 2 1 1 2 2 2 2 1 2 3 3 3 3 4 4 4 5 5 5 5 5 5 5 4 4 4
3 3 2 3 3 3 3 3 4 5 5 5 3 2 1 1 2 2 1 0 1 1 2 2 2 2 2 2 3 3 4 3 3 3 3 3 3 3
4 3 3 4 4 4 4 4 5 5 4 4 3 2 1 2 1 1 2 1 1 1 1 1 2 2 2 2 3 3 3 2 2 1 1 1 1 1
3 3 3 4 5 6 6 6 6 6 5 4 3 3 2 2 2 2 2 2 1 1 1 1 2 2 4 4 4 4 4 4 3 2 2 1 1 0
3 2 2 3 4 4 5 5 4 5 6 6 5 4 4 4 4 3 3 3 2 2 2 1 1 2 5 5 6 7 7 6 5 4 4 3 3 2
3 3 3 2 2 3 4 3 2 1 2 4 5 5 5 5 6 6 5 3 0 0 3 2 2 2 3 5 6 7 8 7 7 6 5 5 5 5
2 3 3 3 2 4 4 3 2 1 0 3 4 5 5 7 7 4 3 2 0 1 1 2 2 2 2 3 6 8 9 9 9 9 8 8 7 6
2 2 2 3 3 4 4 3 2 1 0 1 1 1 1 3 6 6 5 4 2 2 2 2 1 1 1 3 4 6 7 10 11 11 11 10 9 6
2 0 1 2 3 3 3 3 3 3 1 1 0 0 1 1 1 3 5 5 4 3 3 3 2 2 2 2 2 3 5 5 7 9 11 11 10 7
3 2 1 2 3 3 2 1 3 3 2 1 0 1 2 2 3 3 4 6 6 5 5 5 3 3 2 2 3 2 3 5 5 5 7 8 9 10
3 4 3 3 3 2 1 1 2 2 1 1 2 3 3 3 2 1 2 3 3 4 5 5 4 3 3 3 3 2 2 3 4 4 4 5 6 6
2 2 3 2 2 1 1 1 0 2 2 2 3 3 2 1 2 2 2 2 1 3 4 5 6 5 3 3 3 3 3 3 3 3 4 4 6 8
3 2 1 1 0 1 1 2 1 1 1 2 2 2 2 2 3 2 2 2 2 3 3 3 3 4 4 4 3 4 3 3 4 3 2 3 5 7
5 2 2 2 3 3 2 2 2 2 3 3 3 3 3 3 3 2 2 3 4 4 4 3 1 1 2 2 5 5 4 4 4 3 3 3 4 5
4 3 3 4 3 3 3 3 3 3 3 3 3 3 3 3 3 3 2 2 3 4 4 3 2 2 2 3 5 6 5 4 3 2 3 4 5 6
4 4 4 4 4 4 4 4 3 3 2 3 3 3 3 3 2 3 3 3 3 3 2 2 2 4 5 5 4 4 6 5 4 4 3 2 4 5
5 5 5 5 5 4 4 4 4 4 3 3 3 3 3 3 3 3 3 4 3 2 3 3 5 4 2 1 1 3 4 6 6 4 3 2 2 2
6 6 5 5 4 4 3 3 3 3 3 3 3 3 3 3 4 4 3 3 3 3 3 3 2 0 1 2 3 4 4 4 4 6 6 6 4 4
6 6 5 4 4 3 3 3 3 3 3 3 3 3 3 3 3 4 4 4 3 3 2 2 1 1 2 3 3 3 4 4 2 2 4 7 9 9
Wind_Direction
80 89 94 111 142 152 151 155 150 161 209 217 105 184 128 118 116 109 101 100 100 100 99 99 98 98 97 96 92 91 96 96 91 91 91 79 74 82
81 79 69 94 134 139 157 159 147 153 161 182 175 162 149 132 126 118 111 105 101 104 105 105 102 99 99 96 95 93 94 97 95 92 88 82 77 76
53 80 76 79 90 127 143 139 135 133 134 130 79 101 117 127 132 126 121 113 110 108 106 103 103 105 103 100 99 96 96 97 96 92 87 84 75 71
60 71 63 78 61 95 126 132 140 135 135 132 93 87 123 154 148 148 143 131 130 120 110 105 105 105 107 109 107 103 98 97 97 95 90 84 79 73
78 83 81 90 73 83 105 113 118 119 115 129 124 102 100 129 117 127 139 128 137 142 131 128 121 124 125 121 115 111 106 102 97 95 92 88 80 74
68 76 82 96 110 117 115 114 118 114 114 121 117 100 87 110 107 124 129 292 203 172 151 153 160 170 169 153 143 134 123 111 100 93 92 90 85 71
69 67 75 89 101 113 122 127 128 127 126 124 122 107 95 118 168 192 161 168 311 227 160 215 209 239 248 231 211 191 174 165 153 129 108 95 89 75
98 74 70 68 75 88 105 119 133 141 146 141 145 152 183 192 185 169 151 130 274 249 162 249 203 239 248 237 232 221 213 212 216 220 223 229 225 248
119 112 94 82 80 92 92 93 104 126 149 159 160 179 186 200 175 166 167 164 204 216 151 234 253 250 252 246 239 230 226 223 223 229 236 238 243 257
111 126 122 115 111 114 109 95 91 110 160 164 178 194 197 193 185 183 185 180 260 236 150 188 254 248 252 253 243 228 227 227 227 232 242 251 257 262
88 103 117 116 124 119 113 112 87 10 104 163 181 192 191 184 170 144 137 131 253 275 191 172 225 242 266 266 255 243 236 235 235 236 241 247 254 263
73 71 109 126 133 129 127 134 156 238 12 53 56 83 158 175 172 170 172 169 181 245 229 174 203 152 297 280 259 254 248 244 241 242 246 250 251 253
133 111 284 160 145 148 148 161 196 187 161 157 177 323 314 275 216 191 183 176 182 222 217 169 181 178 197 268 286 252 239 241 244 249 254 253 248 232
175 200 228 186 153 145 147 157 161 143 130 140 205 246 245 251 244 228 215 210 208 211 209 176 180 186 183 224 269 280 257 249 233 242 254 255 252 245
199 207 197 170 148 146 161 156 139 132 144 178 229 245 241 241 236 243 254 241 251 253 237 212 191 184 177 202 229 241 258 263 238 236 241 235 233 228
200 194 168 148 118 95 351 330 209 194 190 211 232 254 266 257 237 224 227 226 247 286 281 246 218 187 200 216 208 232 230 241 247 237 232 244 248 239
150 108 94 95 127 311 308 295 286 265 238 239 235 255 261 253 251 228 216 203 212 247 280 296 271 220 210 198 210 232 239 251 247 234 224 250 258 249
143 152 184 200 213 230 243 266 265 249 243 233 227 232 240 242 250 247 214 207 223 239 246 256 276 29 11 296 224 220 236 242 250 238 211 227 260 262
159 188 200 209 220 228 234 241 252 253 240 227 228 231 231 236 241 243 232 223 232 238 243 235 202 177 211 268 277 229 214 238 239 241 229 218 236 253
196 205 211 214 218 226 233 238 247 254 244 236 230 232 233 230 230 238 233 229 231 237 251 251 221 208 210 223 243 265 239 219 220 234 245 248 261 277
211 220 221 221 223 227 233 235 236 239 240 233 233 231 231 223 228 234 233 230 219 217 225 241 246 242 216 146 283 284 274 255 229 217 216 229 273 297
213 218 221 222 222 222 225 230 237 243 246 244 244 242 237 225 225 225 219 218 220 220 227 250 268 232 164 212 246 261 276 294 287 262 235 215 197 218
214 213 215 218 219 220 221 226 224 232 239 241 240 242 237 231 227 223 221 218 217 217 219 243 272 258 239 234 244 256 267 276 285 299 284 269 252 248
Height
1539 1539 1539 1538 1538 1538 1539 1539 1539 1540 1541 1542 1542 1542 1542 1542 1541 1541 1541 1540 1540 1539 1539 1538 1538 1537 1537 1537 1536 1536 1536 1535 1535 1535 1535 1535 1535 1535
1539 1538 1538 1538 1538 1538 1538 1538 1538 1539 1539 1540 1541 1541 1542 1541 1541 1541 1541 1540 1540 1539 1539 1539 1538 1538 1537 1537 1536 1535 1535 1534 1534 1534 1534 1534 1534 1534
1538 1538 1537 1537 1537 1537 1537 1537 1538 1538 1538 1539 1540 1540 1541 1541 1541 1541 1541 1541 1540 1540 1540 1539 1539 1538 1537 1537 1536 1535 1535 1534 1534 1533 1533 1533 1533 1532
1538 1537 1537 1537 1537 1537 1537 1537 1537 1537 1538 1538 1539 1540 1540 1541 1541 1541 1541 1541 1541 1540 1540 1539 1539 1538 1537 1537 1536 1535 1535 1534 1533 1533 1533 1532 1532 1531
1537 1537 1536 1536 1536 1536 1536 1536 1537 1537 1538 1538 1538 1539 1540 1541 1541 1541 1541 1541 1541 1541 1540 1540 1539 1538 1538 1537 1536 1535 1535 1534 1533 1532 1532 1531 1531 1530
1537 1537 1537 1536 1536 1536 1536 1536 1536 1537 1537 1538 1538 1539 1540 1540 1541 1541 1541 1541 1541 1541 1540 1540 1539 1539 1538 1537 1536 1535 1535 1534 1533 1532 1531 1531 1530 1529
1538 1537 1537 1537 1537 1536 1536 1536 1536 1536 1537 1537 1538 1538 1539 1539 1540 1540 1540 1540 1540 1540 1540 1540 1539 1539 1538 1537 1536 1535 1535 1534 1533 1532 1531 1530 1529 1528
1537 1537 1537 1537 1537 1537 1536 1536 1537 1536 1536 1537 1537 1537 1538 1539 1539 1539 1540 1540 1540 1540 1540 1539 1539 1538 1538 1537 1536 1535 1535 1534 1532 1531 1530 1529 1528 1527
1537 1537 1537 1537 1537 1537 1537 1537 1537 1537 1537 1537 1537 1537 1538 1538 1538 1538 1539 1539 1539 1539 1539 1538 1538 1537 1537 1536 1536 1535 1534 1533 1532 1531 1530 1529 1528 1527
1536 1536 1537 1537 1537 1537 1536 1536 1536 1536 1536 1536 1537 1537 1538 1538 1538 1538 1538 1538 1538 1538 1538 1537 1537 1537 1536 1536 1535 1534 1533 1532 1531 1530 1529 1528 1527 1526
1536 1536 1536 1536 1536 1536 1536 1536 1536 1536 1536 1536 1536 1537 1537 1537 1537 1537 1537 1537 1536 1536 1537 1536 1536 1535 1535 1534 1534 1533 1532 1531 1530 1529 1528 1527 1526 1525
1535 1535 1535 1535 1535 1535 1535 1535 1535 1535 1535 1535 1536 1536 1536 1536 1536 1536 1535 1535 1535 1535 1535 1535 1534 1534 1533 1533 1532 1531 1531 1530 1529 1528 1527 1525 1524 1523
1534 1534 1534 1534 1534 1534 1535 1535 1535 1535 1535 1534 1534 1534 1534 1534 1534 1534 1534 1533 1533 1533 1533 1533 1532 1532 1531 1530 1530 1529 1529 1528 1527 1526 1525 1524 1522 1521
1533 1533 1533 1533 1533 1533 1533 1533 1534 1534 1533 1533 1532 1532 1532 1532 1532 1532 1532 1532 1532 1531 1531 1531 1530 1529 1529 1528 1527 1526 1526 1525 1524 1523 1522 1521 1520 1519
1532 1532 1532 1532 1531 1531 1531 1531 1531 1531 1531 1531 1530 1530 1530 1530 1530 1530 1530 1529 1529 1529 1528 1528 1527 1527 1526 1525 1524 1523 1523 1522 1521 1520 1519 1518 1517 1516
1529 1530 1530 1529 1529 1529 1529 1529 1529 1529 1529 1529 1529 1528 1528 1527 1527 1527 1527 1526 1526 1526 1526 1525 1524 1524 1523 1522 1521 1520 1520 1519 1518 1517 1516 1515 1514 1513
1527 1527 1527 1527 1526 1527 1527 1527 1527 1527 1526 1526 1526 1525 1525 1525 1524 1524 1524 1523 1523 1522 1522 1521 1521 1520 1519 1519 1518 1517 1516 1515 1515 1514 1512 1511 1510 1509
1524 1524 1524 1524 1524 1524 1524 1524 1524 1524 1523 1523 1523 1522 1522 1521 1521 1521 1520 1520 1519 1519 1518 1518 1517 1516 1516 1515 1515 1513 1512 1512 1511 1510 1509 1507 1506 1505
1521 1521 1521 1521 1521 1521 1521 1521 1521 1520 1520 1520 1519 1519 1518 1518 1518 1517 1517 1516 1516 1515 1515 1514 1514 1513 1512 1511 1511 1511 1509 1508 1507 1506 1505 1504 1502 1501
1517 1518 1518 1518 1518 1518 1518 1518 1517 1517 1517 1516 1516 1515 1515 1515 1514 1513 1513 1512 1512 1511 1511 1511 1510 1509 1508 1508 1507 1507 1506 1505 1503 1502 1501 1500 1499 1498
1513 1514 1514 1514 1514 1514 1514 1514 1514 1513 1513 1512 1512 1512 1511 1511 1510 1510 1509 1509 1508 1508 1507 1507 1506 1506 1506 1505 1504 1503 1502 1502 1500 1499 1498 1496 1495 1494
1509 1509 1510 1510 1510 1510 1510 1510 1510 1509 1509 1508 1507 1507 1507 1507 1506 1506 1506 1505 1504 1504 1504 1503 1503 1502 1502 1501 1500 1499 1498 1498 1497 1496 1494 1493 1492 1489
1505 1505 1505 1506 1506 1506 1506 1506 1505 1505 1504 1504 1504 1503 1503 1503 1502 1502 1502 1501 1501 1500 1500 1499 1499 1498 1498 1497 1496 1495 1494 1493 1492 1491 1491 1489 1489 1487